Lee's Summit, MO

10:48 AM CST on January 16, 2017 (GMT -0600)
Lee's Summit Municipal

Weather History for KLXT - August, 2013

Change the Weather History Date:

Tuesday, August 27, 2013

  Actual Average (KMKC) Record (KMKC)
Temperature  
Mean Temperature 81 °F -  
Max Temperature 91 °F 86 °F 98 °F (2007)
Min Temperature 71 °F 67 °F 66 °F (1999)
Cooling Degree Days 16    
Growing Degree Days 31 (Base 50)    
Moisture  
Dew Point 65 °F    
Average Humidity 58    
Maximum Humidity 84    
Minimum Humidity 38    
Precipitation  
Precipitation 0.00 in - - ()
Sea Level Pressure  
Sea Level Pressure 30.02 in    
Wind  
Wind Speed 10 mph (SW)    
Max Wind Speed 14 mph    
Max Gust Speed 21 mph    
Visibility 10 miles    
Events      
Averages and records for this station are not official NWS values.
T = Trace of Precipitation, MM = Missing Value Source: NWS Daily Summary

Daily Weather History Graph

Daily Weather History Graph

Search for Another Location

Airport or City:

Trip Planner

Search our weather history database for the weather conditions in past years. The results will help you decide how hot, cold, wet, or windy it might be!

Date:

Astronomy

Aug. 27, 2013 Rise Set
Actual Time 6:42 AM CDT 7:55 PM CDT
Civil Twilight 6:14 AM CDT 8:22 PM CDT
Nautical Twilight 5:41 AM CDT 8:55 PM CDT
Astronomical Twilight 5:06 AM CDT 9:29 PM CDT
Moon 11:52 PM CDT (8/27) 1:36 PM CDT (8/27)
Length of Visible Light 14h 08m
Length of Day
13h 12m
Waning Gibbous, 57% of the Moon is Illuminated
Aug 27
Waning Gibbous
Aug 28
Last Quarter
Sep 5
New
Sep 12
First Quarter
Sep 19
Full

Hourly Weather History & Observations

Time (CDT) Temp. Heat Index Dew Point Humidity Pressure Visibility Wind Dir Wind Speed Gust Speed Precip Events Conditions
12:53 AM 77.0 °F - 68.0 °F 74% 30.05 in 10.0 mi SSW 8.1 mph - N/A   Clear
1:53 AM 77.0 °F - 68.0 °F 74% 30.04 in 10.0 mi SSW 8.1 mph - N/A   Clear
2:53 AM 75.9 °F - 66.9 °F 74% 30.03 in 10.0 mi SSW 9.2 mph - N/A   Clear
3:53 AM 75.0 °F - 66.0 °F 73% 30.04 in 10.0 mi SSW 10.4 mph - N/A   Clear
4:53 AM 73.9 °F - 66.0 °F 76% 30.04 in 10.0 mi SSW 10.4 mph - N/A   Clear
5:53 AM 73.0 °F - 66.0 °F 79% 30.04 in 10.0 mi SW 10.4 mph - N/A   Clear
6:53 AM 71.1 °F - 66.0 °F 84% 30.05 in 10.0 mi SW 8.1 mph - N/A   Clear
7:53 AM 73.9 °F - 66.0 °F 76% 30.06 in 10.0 mi SW 8.1 mph - N/A   Clear
8:53 AM 79.0 °F - 64.9 °F 62% 30.06 in 10.0 mi SW 12.7 mph 20.7 mph N/A   Clear
9:53 AM 82.9 °F 84.4 °F 64.0 °F 53% 30.07 in 10.0 mi SW 11.5 mph 20.7 mph N/A   Clear
10:53 AM 84.9 °F 86.6 °F 64.9 °F 51% 30.07 in 10.0 mi SSW 12.7 mph 19.6 mph N/A   Clear
11:53 AM 88.0 °F 90.3 °F 66.0 °F 48% 30.06 in 10.0 mi SW 13.8 mph - N/A   Clear
12:53 PM 90.0 °F 92.4 °F 66.0 °F 45% 30.04 in 10.0 mi SSW 11.5 mph - N/A   Clear
1:53 PM 91.0 °F 93.8 °F 66.0 °F 44% 30.01 in 10.0 mi SSW 13.8 mph 20.7 mph N/A   Clear
2:53 PM 91.0 °F 93.0 °F 64.9 °F 42% 30.00 in 10.0 mi SW 8.1 mph 19.6 mph N/A   Clear
3:53 PM 91.9 °F 92.9 °F 63.0 °F 38% 29.99 in 10.0 mi WSW 12.7 mph - N/A   Partly Cloudy
4:53 PM 91.9 °F 92.9 °F 63.0 °F 38% 29.99 in 10.0 mi SW 9.2 mph - N/A   Partly Cloudy
5:53 PM 89.1 °F 89.3 °F 62.1 °F 40% 29.98 in 10.0 mi SW 9.2 mph - N/A   Partly Cloudy
6:53 PM 88.0 °F 88.7 °F 63.0 °F 43% 29.98 in 10.0 mi SSW 9.2 mph - N/A   Clear
7:53 PM 84.9 °F 85.9 °F 63.0 °F 48% 29.98 in 10.0 mi SSW 6.9 mph - N/A   Clear
8:53 PM 82.9 °F 84.6 °F 64.9 °F 54% 29.99 in 10.0 mi SSW 6.9 mph - N/A   Clear
9:53 PM 81.0 °F 82.7 °F 64.9 °F 58% 30.00 in 10.0 mi SSW 8.1 mph - N/A   Clear
10:53 PM 80.1 °F 81.7 °F 64.0 °F 58% 30.00 in 10.0 mi SSW 8.1 mph - N/A   Clear
11:53 PM 79.0 °F - 63.0 °F 58% 29.99 in 10.0 mi SSW 8.1 mph - N/A   Clear